This demonstration page uses our WeatherBlox Daily Observations layout. Learn more.

Left ArrowRight Arrow

34.74481, -87.66753

Hourly Observations for June 2, 2018

Temp ( °F °C ) Dew Point ( °F °C ) Humidity (%) Winds ( mph kmh ) Pressure ( in mb ) Visibility ( mi km ) Precip ( " mm )
12:53 am 00:53 Clear 73 22.8 71 21.7 94 94 Calm 29.88 1012 7 11 0.00 0.00
1:15 am 01:15 Clear with Mist and Fog 72 22.2 71 21.7 97 97 Calm 29.88 1012 2 3 0.00 0.00
1:33 am 01:33 Clear with Mist and Fog 72 22.2 71 21.7 97 97 Calm 29.88 1012 3 5 0.00 0.00
1:41 am 01:41 Clear with Mist and Fog 72 22.2 71 21.7 97 97 Calm 29.88 1012 2 2 0.00 0.00
1:53 am 01:53 Clear with Mist and Fog 72 22.2 71 21.7 97 97 SSE 3 6 29.89 1012 1 2 0.00 0.00
2:02 am 02:02 Clear with Mist and Fog 72 22.2 71 21.7 97 97 Calm 29.88 1012 4 6 0.00 0.00
2:08 am 02:08 Mostly Clear with Mist and Fog 72 22.2 70 21.1 94 94 Calm 29.88 1012 2 3 0.00 0.00
2:11 am 02:11 Mostly Cloudy with Mist and Fog 72 22.2 71 21.7 97 97 Calm 29.88 1012 1 2 0.00 0.00
2:14 am 02:14 Mostly Cloudy with Mist and Fog 72 22.2 71 21.7 97 97 Calm 29.88 1012 1 1 0.00 0.00
2:27 am 02:27 Mostly Cloudy with Mist and Fog 72 22.2 71 21.7 97 97 Calm 29.88 1012 1 1 0.00 0.00
2:29 am 02:29 Mostly Cloudy with Mist and Fog 72 22.2 71 21.7 97 97 Calm 29.88 1012 1 2 0.00 0.00
2:32 am 02:32 Mostly Cloudy with Mist and Fog 72 22.2 71 21.7 97 97 Calm 29.88 1012 3 5 0.00 0.00
2:42 am 02:42 Cloudy with Mist and Fog 72 22.2 71 21.7 97 97 Calm 29.88 1012 2 3 0.00 0.00
2:53 am 02:53 Mostly Cloudy with Fog 72 22.2 71 21.7 97 97 E 3 6 29.89 1012 1 1 0.00 0.00
3:03 am 03:03 Mostly Cloudy with Mist and Fog 71 21.7 70 21.1 96 96 Calm 29.88 1012 2 3 0.00 0.00
3:15 am 03:15 Partly Cloudy with Mist and Fog 72 22.2 70 21.1 94 94 Calm 29.88 1012 3 5 0.00 0.00
3:27 am 03:27 Partly Cloudy with Mist and Fog 71 21.7 70 21.1 96 96 Calm 29.88 1012 2 2 0.00 0.00
3:30 am 03:30 Mostly Cloudy with Mist and Fog 71 21.7 70 21.1 96 96 Calm 29.88 1012 1 1 0.00 0.00
3:53 am 03:53 Mostly Cloudy with Mist and Fog 71 21.7 70 21.1 96 96 Calm 29.88 1012 1 1 0.00 0.00
4:01 am 04:01 Mostly Cloudy with Mist and Fog 71 21.7 70 21.1 96 96 Calm 29.88 1012 1 2 0.00 0.00
4:09 am 04:09 Partly Cloudy with Mist and Fog 71 21.7 70 21.1 96 96 Calm 29.85 1011 1 2 0.00 0.00
4:18 am 04:18 Mostly Clear with Mist and Fog 71 21.7 69 20.6 94 94 Calm 29.85 1011 3 5 0.00 0.00
4:53 am 04:53 Clear 70 21.1 69 20.6 97 97 Calm 29.87 1011 7 11 0.00 0.00
5:36 am 05:36 Partly Cloudy 70 21.1 69 20.6 97 97 Calm 29.88 1012 7 11 0.00 0.00
5:46 am 05:46 Mostly Cloudy 71 21.7 70 21.1 96 96 NE 5 7 29.88 1012 7 11 0.00 0.00
5:53 am 05:53 Mostly Cloudy 72 22.2 70 21.1 94 94 ENE 5 7 29.90 1012 7 11 0.00 0.00
6:34 am 06:34 Cloudy with Mist and Fog 72 22.2 71 21.7 97 97 ENE 3 6 29.88 1012 2 2 0.00 0.00
6:46 am 06:46 Mostly Cloudy with Mist and Fog 72 22.2 71 21.7 97 97 E 3 6 29.88 1012 1 1 0.00 0.00
6:53 am 06:53 Mostly Cloudy with Mist and Fog 73 22.8 72 22.2 96 96 Calm 29.90 1013 1 1 0.00 0.00
7:07 am 07:07 Cloudy with Mist and Fog 73 22.8 72 22.2 96 96 Calm 29.88 1012 2 3 0.00 0.00
7:44 am 07:44 Cloudy with Mist and Fog 73 22.8 72 22.2 96 96 Calm 29.88 1012 4 6 0.00 0.00
7:53 am 07:53 Cloudy with Mist and Fog 73 22.8 72 22.2 96 96 Calm 29.90 1013 4 6 0.00 0.00
8:53 am 08:53 Cloudy 75 23.9 72 22.2 90 90 Calm 29.90 1013 7 11 0.00 0.00
9:17 am 09:17 Mostly Cloudy 77 25 72 22.2 85 85 Calm 29.88 1012 10 16 0.00 0.00
9:27 am 09:27 Partly Cloudy 78 25.6 73 22.8 85 85 VRB 3 6 29.88 1012 10 16 0.00 0.00
9:53 am 09:53 Partly Cloudy 78 25.6 72 22.2 82 82 VRB 3 6 29.91 1013 10 16 0.00 0.00
10:53 am 10:53 Sunny 83 28.3 73 22.8 72 72 NNW 6 9 29.91 1013 10 16 0.00 0.00
11:53 am 11:53 Mostly Sunny 85 29.4 73 22.8 68 68 undefined N/A 29.92 1013 10 16 0.00 0.00
12:53 pm 12:53 Mostly Sunny 88 31.1 72 22.2 59 59 NNW 7 11 29.91 1013 10 16 0.00 0.00
1:53 pm 13:53 Mostly Sunny 88 31.1 72 22.2 59 59 NE 7 11 29.91 1013 10 16 0.00 0.00
2:53 pm 14:53 Partly Cloudy 89 31.7 71 21.7 55 55 N 6 9 29.89 1012 10 16 0.00 0.00
3:53 pm 15:53 Sunny 90 32.2 70 21.1 52 52 NE 5 7 29.84 1011 10 16 0.00 0.00
4:53 pm 16:53 Sunny 90 32.2 68 20 48 48 VRB 3 6 29.85 1011 10 16 0.00 0.00
5:53 pm 17:53 Sunny 89 31.7 70 21.1 53 53 W 3 6 29.82 1010 10 16 0.00 0.00
6:53 pm 18:53 Sunny 87 30.6 71 21.7 59 59 W 9 15 29.82 1010 10 16 0.00 0.00
7:53 pm 19:53 Sunny 83 28.3 74 23.3 74 74 NW 3 6 29.84 1010 10 16 0.00 0.00
8:53 pm 20:53 Clear 81 27.2 74 23.3 79 79 Calm 29.86 1011 10 16 0.00 0.00
9:53 pm 21:53 Clear 78 25.6 74 23.3 87 87 Calm 29.90 1013 10 16 0.00 0.00
10:53 pm 22:53 Clear 77 25 73 22.8 88 88 Calm 29.91 1013 10 16 0.00 0.00
11:53 pm 23:53 Clear 75 23.9 73 22.8 94 94 Calm 29.89 1012 10 16 0.00 0.00

Powered by AerisWeather